Regional Weather Roundup
Issued by NWS Upton, NY

Current Version | Previous Version | Graphics & Text | Print | Product List | Glossary Off
Versions: 1 2 3 4 5 6 7 8 9 10 11 12 13 14 15 16 17 18 19 20 21 22 23 24 25 26 27 28 29 30 31 32 33 34 35 36 37 38 39 40 41 42 43 44 45 46 47 48 49 50

000
ASUS41 KOKX 260105
RWROKX

REGIONAL WEATHER ROUNDUP
NATIONAL WEATHER SERVICE NEW YORK NY
800 PM EST SUN JAN 25 2015

NOTE: "FAIR" INDICATES FEW OR NO CLOUDS BELOW 12,000 FEET WITH NO
SIGNIFICANT WEATHER AND/OR OBSTRUCTIONS TO VISIBILITY.

NYZ071-072-176-178-NJZ106-104-260200-
NEW YORK CITY METRO AREA


CITY           SKY/WX    TMP DP  RH WIND       PRES   REMARKS
CENTRAL PARK   PTCLDY    35  10  35 VRB3      29.96R
LAGUARDIA APRT MOCLDY    34  12  40 N12       29.94R WCI  25
KENNEDY INTL   CLOUDY    36   8  31 N12       29.95R WCI  28
NEWARK/LIBERTY CLOUDY    34   9  35 N13       29.94R WCI  25
BRNX BOT. GARD   N/A    N/A N/A N/A NW13      29.95R
TETERBORO      PTCLDY    33  10  38 N8        29.94R WCI  26
$$

NYZ177-179-078>081-260200-
LONG ISLAND NEW YORK

CITY           SKY/WX    TMP DP  RH WIND       PRES   REMARKS
FARMINGDALE    MOCLDY    34  12  40 N10       29.93R WCI  26
ISLIP          MOCLDY    31  15  52 NW6       29.92R WCI  25
SHIRLEY        PTCLDY    31  14  49 NW7       29.94R WCI  24
WESTHAMPTON    PTCLDY    25  15  66 CALM      29.94R
MONTAUK POINT    N/A     34  11  38 N10       29.94R WCI  26
$$

NYZ052-065-067-260200-
HUDSON VALLEY

CITY           SKY/WX    TMP DP  RH WIND       PRES   REMARKS
WHITE PLAINS   PTCLDY    28  10  46 NW6       29.91R WCI  22
NEWBURGH       PTCLDY    25  12  58 NW7       29.94R WCI  17
MONTGOMERY     MOCLDY    27   7  42 W5        29.93R WCI  22
POUGHKEEPSIE   MOCLDY    25   6  44 NE8       29.96R WCI  16
ALBANY         MOCLDY    18   2  49 NW14      29.99R WCI   4
$$

NJZ001-105-106-008-010-013-015-019>022-104-260200-
NEW JERSEY

CITY           SKY/WX    TMP DP  RH WIND       PRES   REMARKS
NEWARK/LIBERTY CLOUDY    34   9  35 N13       29.94R WCI  25
TETERBORO      PTCLDY    33  10  38 N8        29.94R WCI  26
CALDWELL       MOCLDY    31   8  38 CALM      29.95R
MORRISTOWN     CLOUDY    32   9  37 N7        29.95R WCI  26
SOMERVILLE     CLOUDY    35  13  40 N6        29.93R WCI  30
SUSSEX         MOCLDY    28   8  43 CALM      29.94R
ANDOVER          N/A     25  11  55 NE5       29.94R WCI  19
TRENTON        CLOUDY    37  24  59 NE8       29.91R WCI  31
MILLVILLE      CLOUDY    42  33  70 CALM      29.90R
ATLANTIC CITY  CLOUDY    40  31  70 E5        29.91R
WRIGHTSTOWN    CLOUDY    37  31  78 N3        29.89S
TOMS RIVER     CLOUDY    36  28  75 CALM      29.92R
BELMAR         CLOUDY    37  16  41 N7        29.92R WCI  32
$$

PAZ047>061-062-071-260200-
EASTERN PENNSYLVANIA

CITY           SKY/WX    TMP DP  RH WIND       PRES   REMARKS
PHILADELPHIA   LGT RAIN  41  33  73 NE5       29.92R
ALLENTOWN      CLOUDY    34  18  52 NE7       29.92R WCI  28
SCRANTON       CLOUDY    24  11  57 N14       29.92R WCI  12
$$

CTZ002-004>006-009-010-012-RIZ004-006-007-MAZ004-011-015-260200-
SOUTHERN NEW ENGLAND
 IN CT

CITY           SKY/WX    TMP DP  RH WIND       PRES   REMARKS
BRADLEY INTL   MOCLDY    24  -1  33 NW9       29.94R WCI  14
HARTFORD       PTCLDY    25   6  44 VRB6      29.97R WCI  18
DANBURY        PTCLDY    26   4  38 N6        29.94R WCI  19
WTRBRY/OXFORD  PTCLDY    25   3  39 N8        29.91R WCI  16
BRIDGEPORT     PTCLDY    30  14  51 N6        29.94R WCI  24
MERIDEN        PTCLDY    27   6  41 NW9       29.96R WCI  18
NEW HAVEN      PTCLDY    30   9  41 NW6       29.94R WCI  24
CHESTER        FAIR      28   9  43 N8        29.93R WCI  20
GROTON         CLEAR     27   8  44 N9        29.94R WCI  18
WILLIMANTIC    PTCLDY    25   3  38 NW7       29.95R WCI  17

 IN RI

CITY           SKY/WX    TMP DP  RH WIND       PRES   REMARKS
PROVIDENCE     PTCLDY    27   6  41 NW12      29.92R WCI  17
BLOCK ISLAND   CLEAR     30   7  37 N10       29.90R WCI  21
WESTERLY       CLEAR     29   7  39 NW8       29.94R WCI  21

 IN MA

CITY           SKY/WX    TMP DP  RH WIND       PRES   REMARKS
BOSTON         PTCLDY    27   8  44 NW9       29.94R WCI  18
WORCESTER      MOCLDY    20   3  48 NW10      29.87R WCI   9
WESTFIELD      MOCLDY    22   2  42 N6        29.95R WCI  14
PROVINCETOWN   NOT AVBL
NANTUCKET      CLEAR     32  14  47 NW15      29.88R WCI  22
$$

ANZ330-335-338-340-345-350-353-355-260200-
COASTAL MARINE OBSERVATIONS


STATION/POSITION TIME  SKY/WX   TEMP    WIND        PRES    VSBY  WAVE
                                AIR SEA DIR/SP/G                  HT/PER
                 (UTC)          (F)     (DEG/KT/KT) (MB)    (MI)  (FT/S)
NY HARB ENTRANCE 0100            39 42  340/ 12/ 16 1013.2          3/11
4S FIRE IS       0100               39                N/A           4/11
20S FIRE ISLAND  0000               41              1012.8          4/11
23SW MTP         0100                                 N/A           5/11
HUDSON CANYON    NOT AVBL
EXECUTION ROCKS  0100            35 35  330/  8/ 10   N/A
WESTERN LI SOUND 0100            35     330/ 10/ 12   N/A           0
CENTRAL LI SOUND 0000            34 36  340/ 14/ 16   N/A           2/ 4
EASTERN LI SOUND NOT AVBL
ROBBINS REEF     0100            35     340/  6/ 10 1012.5
$$


>>>>>>>>>>>>>>>>>>>>>>>>>>>> KEY <<<<<<<<<<<<<<<<<<<<<<<<<<<
>                                                          <
>     SKY/WX - SKY CONDITION/PRESENT WEATHER               <
>     TMP    - TEMPERATURE IN FAHRENHEIT                   <
>     DP     - DEWPOINT IN FAHRENHEIT                      <
>     RH     - RELATIVE HUMIDITY IN PERCENT                <
>     WIND   - DIRECTION AND SPEED IN MPH                  <
>     PRES   - MEAN SEA LEVEL PRESSURE IN INCHES OF HG     <
>     WCI    - WIND CHILL INDEX                            <
>     VSB    - VISIBILITY IN MILES                         <
>     HX     - HEAT INDEX                                  <
>     TC     - TEMPERATURE IN CELSIUS                      <
>     VRB    - VARIABLE WIND DIRECTION                     <
>                                                          <
>>>>>>>>>>>>>>>>>>>>>>>>>>>> KEY <<<<<<<<<<<<<<<<<<<<<<<<<<<




USA.gov is the U.S. government's official web portal to all federal, state and local government web resources and services.